Regional Weather Roundup
Issued by NWS

Home | Current Version | Previous Version | Text Only | Print | Product List | Glossary On
Versions: 1 2 3 4 5 6 7 8 9 10 11 12 13 14 15 16 17 18 19 20 21 22 23 24 25 26 27 28 29 30 31 32 33 34 35 36 37 38 39 40 41 42 43 44 45 46 47 48 49 50
000
ASUS43 KLMK 061310
RWRKY
KENTUCKY REGIONAL WEATHER ROUNDUP
NATIONAL WEATHER SERVICE LOUISVILLE KY
900 AM EDT WED MAY 06 2015

NOTE "FAIR" INDICATES FEW OR NO CLOUDS BELOW 12,000 FEET
WITH NO SIGNIFICANT WEATHER AND/OR OBSTRUCTIONS TO VISIBILITY.

KYZ001>023-026-027-061>063-070>075-061400-
WESTERN AND SOUTH CENTRAL KENTUCKY

CITY           SKY/WX    TMP DP  RH WIND       PRES   REMARKS
PADUCAH        SUNNY     67  59  75 E5        30.17R
HENDERSON      SUNNY     66  57  72 SE3       30.18S
OWENSBORO      SUNNY     68  58  70 SE5       30.21R
HOPKINSVILLE   PTSUNNY   64  58  79 SE5       30.20R
BOWLING GREEN  MOSUNNY   68  59  73 E3        30.21R
GLASGOW        PTSUNNY   63  58  82 CALM      30.22R
$$

KYZ024-025-028>034-038-045-046-053-061400-
NORTH CENTRAL KENTUCKY

CITY           SKY/WX    TMP DP  RH WIND       PRES   REMARKS
LOUISVILLE/SDF MOSUNNY   68  58  70 CALM      30.22R
LOUISVILLE/LOU SUNNY     68  56  65 CALM      30.22R
FORT KNOX      MOSUNNY   67  56  67 CALM      30.21R
$$

KYZ035>037-039>044-047>052-055>060-089>105-061400-
NORTHEAST KENTUCKY

CITY           SKY/WX    TMP DP  RH WIND       PRES   REMARKS
LEXINGTON      MOSUNNY   67  58  72 CALM      30.24R
COVINGTON      MOSUNNY   69  59  70 CALM      30.22S
FRANKFORT      MOSUNNY   67  57  70 CALM      30.22R
$$

KYZ054-064>069-076>088-106>120-061400-
SOUTHEAST KENTUCKY

CITY           SKY/WX    TMP DP  RH WIND       PRES   REMARKS
JACKSON        CLOUDY    62  56  80 CALM      30.25R
LONDON         MOSUNNY   65  54  67 CALM      30.25R
SOMERSET       SUNNY     63  55  77 CALM      30.25S
MIDDLESBORO    MOSUNNY   60  56  87 CALM      30.27S
MONTICELLO     MOSUNNY   66  60  81 CALM      30.26S
$$




USA.gov is the U.S. government's official web portal to all federal, state and local government web resources and services.